Location: Althorst
(53.6379°N, 10.7715°E)
Time: 12:28:08
(UTC+00:00)

YAOGAN 6 - Pass Details

Date: 10 December 2019
Orbit: 466 x 505 km, 97.0° (Epoch: 27 January)

Event Time Altitude Azimuth Distance (km) Brightness Sun altitude
Rises 16:07:24 0° 128° (SE) 2,528 5.9 -9.6°
Reaches altitude 10° 16:09:48 10° 111° (ESE) 1,661 4.9 -9.9°
Maximum altitude 16:12:29 20° 62° (ENE) 1,162 3.8 -10.3°
Drops below altitude 10° 16:15:13 10° 13° (NNE) 1,688 4.9 -10.7°
Sets 16:17:40 0° 357° (N) 2,584 6.0 -11.0°
